Location: Cowley
(49.5667°N, 114.0667°W)
Time: 11:56:33
(UTC+00:00)

Envisat - Pass Details

Date: 03 December 2021
Orbit: 764 x 766 km, 98.2° (Epoch: 25 January)

Event Time Altitude Azimuth Distance (km) Brightness Sun altitude
Rises 00:44:59 0° 201° (SSW) 3,221 6.9 -10.3°
Reaches altitude 10° 00:47:43 10° 216° (SW) 2,300 6.4 -10.8°
Maximum altitude 00:51:45 24° 268° (W) 1,572 5.6 -11.4°
Drops below altitude 10° 00:55:48 10° 321° (NW) 2,315 5.7 -12.0°
Sets 00:58:35 0° 336° (NNW) 3,246 6.3 -12.4°
